Quick links : Home Page : Contact Us : Index : Site Map : Search Site : Ephemerides


(22404) 1995 ME4

Orbital Elements

The following orbital elements are taken from MPO 97247
 (22404) 1995 ME4
Epoch 2007 Oct. 27.0 TT = JDT 2454400.5                 MPC
M 256.81495              (2000.0)            P               Q
n   0.08096708     Peri.  177.51211     +0.27659619     -0.94810676
a   5.2917225      Node   256.39777     +0.87887856     +0.31556853
e   0.1202928      Incl.    9.28416     +0.38867342     -0.03885959
P  12.2            H   12.4           G   0.15           U   1
From 98 observations at 5 oppositions, 1995-2002, mean residual 0".58.
An explanation of the orbital elements is available.

These orbital elements are also available in forms suitable for loading into a number of popular planetarium-type software programs.


Ephemeris

The following ephemeris is at intervals of five days. A daily ephemeris covering the same time interval is also available.

Personalized ephemerides for this (and other) objects may be generated using the Minor Planet & Comet Ephemeris Service.

Date    TT    R. A. (2000) Decl.     Delta      r     Elong.  Phase     V
2008 04 14    22 28.36   -01 00.2    6.003    5.361    46.4     7.8    20.5
2008 04 19    22 31.62   -00 34.7    5.942    5.357    50.3     8.3    20.5
2008 04 24    22 34.74   -00 09.5    5.877    5.352    54.3     8.8    20.5
2008 04 29    22 37.71   +00 15.3    5.809    5.348    58.2     9.2    20.5
2008 05 04    22 40.52   +00 39.6    5.738    5.343    62.2     9.6    20.5
2008 05 09    22 43.16   +01 03.3    5.665    5.339    66.2    10.0    20.4
2008 05 14    22 45.60   +01 26.4    5.590    5.334    70.3    10.3    20.4
2008 05 19    22 47.85   +01 48.7    5.512    5.330    74.4    10.5    20.4
2008 05 24    22 49.89   +02 10.1    5.433    5.326    78.6    10.7    20.4
2008 05 29    22 51.72   +02 30.6    5.353    5.321    82.7    10.9    20.4
2008 06 03    22 53.31   +02 50.0    5.273    5.317    87.0    11.0    20.3
2008 06 08    22 54.66   +03 08.2    5.192    5.312    91.3    11.0    20.3
2008 06 13    22 55.76   +03 25.1    5.111    5.308    95.6    11.0    20.3
2008 06 18    22 56.60   +03 40.6    5.031    5.303   100.0    10.9    20.2
2008 06 23    22 57.17   +03 54.5    4.952    5.299   104.5    10.7    20.2
2008 06 28    22 57.47   +04 06.9    4.874    5.294   109.0    10.5    20.1
2008 07 03    22 57.49   +04 17.5    4.799    5.290   113.6    10.1    20.1
2008 07 08    22 57.22   +04 26.2    4.726    5.285   118.3     9.8    20.0
2008 07 13    22 56.68   +04 33.0    4.657    5.281   123.0     9.3    20.0
2008 07 18    22 55.86   +04 37.8    4.591    5.276   127.8     8.8    19.9
2008 07 23    22 54.78   +04 40.5    4.530    5.271   132.7     8.1    19.9
2008 07 28    22 53.45   +04 41.1    4.473    5.267   137.5     7.5    19.8
2008 08 02    22 51.87   +04 39.5    4.421    5.262   142.4     6.8    19.7
2008 08 07    22 50.08   +04 35.9    4.376    5.258   147.3     6.0    19.7
2008 08 12    22 48.10   +04 30.1    4.336    5.253   152.2     5.2    19.6
2008 08 17    22 45.96   +04 22.4    4.302    5.249   156.9     4.3    19.6
2008 08 22    22 43.69   +04 12.7    4.276    5.244   161.4     3.5    19.5
2008 08 27    22 41.34   +04 01.4    4.256    5.240   165.2     2.8    19.4
2008 09 01    22 38.94   +03 48.5    4.244    5.235   167.9     2.3    19.4
2008 09 06    22 36.53   +03 34.4    4.239    5.231   168.4     2.2    19.4
2008 09 11    22 34.17   +03 19.1    4.242    5.226   166.6     2.6    19.4
2008 09 16    22 31.89   +03 03.2    4.251    5.221   163.1     3.2    19.5
2008 09 21    22 29.73   +02 46.7    4.269    5.217   158.7     4.0    19.5
2008 09 26    22 27.73   +02 30.0    4.293    5.212   154.0     4.8    19.6
2008 10 01    22 25.92   +02 13.5    4.323    5.208   149.1     5.7    19.6
2008 10 06    22 24.35   +01 57.3    4.361    5.203   144.1     6.5    19.7
2008 10 11    22 23.02   +01 41.8    4.404    5.199   139.0     7.2    19.7
2008 10 16    22 21.98   +01 27.1    4.452    5.194   134.0     7.9    19.8
2008 10 21    22 21.21   +01 13.6    4.506    5.190   128.9     8.6    19.8
2008 10 26    22 20.75   +01 01.3    4.564    5.185   123.9     9.2    19.9
2008 10 31    22 20.60   +00 50.5    4.627    5.181   118.9     9.7    19.9
2008 11 05    22 20.76   +00 41.3    4.692    5.176   114.0    10.1    20.0
2008 11 10    22 21.23   +00 33.8    4.761    5.171   109.2    10.4    20.0
2008 11 15    22 22.00   +00 28.1    4.831    5.167   104.4    10.7    20.1
2008 11 20    22 23.08   +00 24.1    4.904    5.162    99.7    10.9    20.1
2008 11 25    22 24.44   +00 22.1    4.977    5.158    95.0    11.0    20.1
2008 11 30    22 26.08   +00 21.9    5.052    5.153    90.4    11.0    20.2
2008 12 05    22 27.98   +00 23.6    5.126    5.149    85.8    11.0    20.2
2008 12 10    22 30.15   +00 27.1    5.200    5.144    81.3    10.9    20.2
2008 12 15    22 32.54   +00 32.5    5.273    5.140    76.9    10.7    20.2
2008 12 20    22 35.16   +00 39.6    5.344    5.135    72.5    10.5    20.3
2008 12 25    22 38.00   +00 48.5    5.414    5.131    68.2    10.3    20.3
2008 12 30    22 41.02   +00 59.1    5.482    5.126    63.9     9.9    20.3
2009 01 04    22 44.23   +01 11.3    5.547    5.122    59.7     9.5    20.3
2009 01 09    22 47.61   +01 25.0    5.609    5.117    55.6     9.1    20.3
2009 01 14    22 51.13   +01 40.3    5.668    5.113    51.4     8.7    20.3
2009 01 19    22 54.79   +01 56.9    5.723    5.108    47.4     8.1    20.3
2009 01 24    22 58.58   +02 14.9    5.774    5.104    43.4     7.6    20.3
2009 01 29    23 02.48   +02 34.1    5.822    5.099    39.4     7.0    20.3
2009 02 03    23 06.48   +02 54.6    5.865    5.095    35.5     6.4    20.3
2009 02 08    23 10.56   +03 16.1    5.904    5.090    31.6     5.8    20.3
 
2009 04 29    00 19.54   +10 25.7    5.857    5.020    30.9     5.9    20.2
2009 05 04    00 23.60   +10 54.0    5.813    5.015    34.6     6.5    20.2
2009 05 09    00 27.58   +11 22.0    5.765    5.011    38.2     7.2    20.2
2009 05 14    00 31.46   +11 49.7    5.713    5.007    41.9     7.7    20.2
2009 05 19    00 35.24   +12 17.0    5.658    5.002    45.6     8.3    20.2

Back to Observable Critical-List Minor Planets

MPC

Valid HTML 4.01!